This is the latest recevied weather packets stored in our database for station/object OH6GKW. If no packets are shown the sender has not sent any weather packets the latest 10 day(s).
| Time | Temp. | Humidity | Pressure | Rain* | Wind** | Luminosity | Snow |
|---|---|---|---|---|---|---|---|
| 1777821211 | 8.89° C | 45% | 1006 hPa | 0.25 mm | - | 350 W/m² | - |
| 1777820934 | 8.89° C | 44% | 1006 hPa | 0.25 mm | - | 336 W/m² | - |
| 1777820629 | 8.89° C | 44% | 1006 hPa | 0.25 mm | - | 377 W/m² | - |
| 1777820319 | 8.89° C | 45% | 1005.9 hPa | 0.25 mm | - | 391 W/m² | - |
| 1777820015 | 8.89° C | 45% | 1005.9 hPa | 0.25 mm | - | 415 W/m² | - |
| 1777819723 | 8.89° C | 47% | 1005.9 hPa | 0.25 mm | - | 389 W/m² | - |
| 1777819416 | 8.89° C | 45% | 1005.9 hPa | 0.25 mm | - | 410 W/m² | - |
| 1777819139 | 8.89° C | 45% | 1005.9 hPa | 0.25 mm | - | 408 W/m² | - |
| 1777818834 | 8.89° C | 44% | 1005.9 hPa | 0.25 mm | - | 417 W/m² | - |
| 1777818527 | 8.89° C | 45% | 1006 hPa | 0.25 mm | - | 461 W/m² | - |
| 1777818227 | 8.89° C | 45% | 1006 hPa | 0.25 mm | - | 470 W/m² | - |
| 1777817919 | 8.89° C | 45% | 1006 hPa | 0.25 mm | - | 479 W/m² | - |
| 1777817612 | 8.89° C | 47% | 1006.1 hPa | 0.25 mm | - | 477 W/m² | - |
| 1777817324 | 8.89° C | 47% | 1006.1 hPa | 0.25 mm | - | 482 W/m² | - |
| 1777817018 | 8.89° C | 48% | 1006.1 hPa | 0.25 mm | - | 489 W/m² | - |
| 1777816727 | 8.89° C | 45% | 1006.1 hPa | 0.25 mm | - | 496 W/m² | - |
| 1777816424 | 8.89° C | 48% | 1006.1 hPa | 0.25 mm | - | 501 W/m² | - |
| 1777816117 | 9.44° C | 47% | 1006.1 hPa | 0.25 mm | - | 512 W/m² | - |
| 1777815839 | 9.44° C | 45% | 1005.8 hPa | 0.25 mm | - | 524 W/m² | - |
| 1777815533 | 9.44° C | 47% | 1005.8 hPa | 0.25 mm | - | 542 W/m² | - |
| 1777815233 | 10° C | 45% | 1005.8 hPa | 0.25 mm | - | 575 W/m² | - |
| 1777814921 | 9.44° C | 45% | 1006 hPa | 0.25 mm | - | 561 W/m² | - |
| 1777814615 | 9.44° C | 43% | 1006 hPa | 0.25 mm | - | 552 W/m² | - |
| 1777814329 | 8.89° C | 43% | 1005.9 hPa | 0.25 mm | - | 563 W/m² | - |
| 1777814020 | 8.89° C | 44% | 1006 hPa | 0.25 mm | - | 565 W/m² | - |
* Rain since midnight (hover to see other rain measurements)
** Current wind speed in m/s (hover to see current wind gust speed)